GW5176 Weather Reports


Display with metric or nautical units.
time (UTC)temp
F
wind
direction
speed
MPH
gust
MPH
rain 1hr
in
rain 24hr
in
rain mn
in
humidity
%
barometer
mb
20260507193023 93 256 1.0 3.0 0.00 0.00 0.00 11 1011.1
20260507192519 92 244 0.0 2.0 0.00 0.00 0.00 13 1010.9
20260507192016 93 331 4.0 6.0 0.00 0.00 0.00 11 1010.9
20260507191512 93 198 2.0 4.0 0.00 0.00 0.00 11 1011.1
20260507191009 93 225 2.0 2.0 0.00 0.00 0.00 12 1011.2
20260507190506 92 247 1.0 4.0 0.00 0.00 0.00 13 1011.1
20260507190006 92 155 5.0 8.0 0.00 0.00 0.00 12 1011.2
20260507185502 91 285 3.0 4.0 0.00 0.00 0.00 12 1011.4
20260507184958 91 242 1.0 2.0 0.00 0.00 0.00 13 1011.3
20260507184457 91 232 1.0 2.0 0.00 0.00 0.00 13 1011.4
20260507183955 92 211 2.0 2.0 0.00 0.00 0.00 10 1011.6
20260507183450 90 253 2.0 3.0 0.00 0.00 0.00 12 1011.7
20260507182948 91 243 2.0 3.0 0.00 0.00 0.00 12 1011.6
20260507182444 91 245 1.0 3.0 0.00 0.00 0.00 12 1011.8
20260507181940 90 244 1.0 2.0 0.00 0.00 0.00 12 1011.9
20260507181436 90 275 4.0 6.0 0.00 0.00 0.00 11 1012.0
20260507180933 91 241 2.0 3.0 0.00 0.00 0.00 11 1011.9
20260507180430 91 250 1.0 2.0 0.00 0.00 0.00 10 1012.0
20260507175926 90 240 1.0 2.0 0.00 0.00 0.00 11 1012.1
20260507175423 89 269 2.0 3.0 0.00 0.00 0.00 11 1012.0
20260507174921 89 256 0.0 4.0 0.00 0.00 0.00 11 1012.2
20260507174418 90 239 0.0 2.0 0.00 0.00 0.00 11 1012.1
20260507173916 90 242 1.0 2.0 0.00 0.00 0.00 11 1012.2
20260507173412 89 240 2.0 3.0 0.00 0.00 0.00 11 1012.3
20260507172908 89 243 1.0 4.0 0.00 0.00 0.00 11 1012.3
20260507172405 89 244 1.0 2.0 0.00 0.00 0.00 11 1012.4
20260507171901 88 239 3.0 3.0 0.00 0.00 0.00 11 1012.5
20260507171358 87 240 0.0 2.0 0.00 0.00 0.00 13 1012.5
20260507170855 87 241 1.0 3.0 0.00 0.00 0.00 14 1012.6
20260507170351 87 242 0.0 2.0 0.00 0.00 0.00 14 1012.5
20260507165848 87 244 0.0 1.0 0.00 0.00 0.00 13 1012.7
20260507165344 87 228 1.0 2.0 0.00 0.00 0.00 13 1012.7
20260507164840 86 244 1.0 3.0 0.00 0.00 0.00 16 1012.8
20260507164337 86 288 2.0 2.0 0.00 0.00 0.00 15 1012.6
20260507163834 86 166 3.0 4.0 0.00 0.00 0.00 13 1012.7
20260507163332 85 237 2.0 3.0 0.00 0.00 0.00 14 1012.7
20260507162828 84 238 2.0 3.0 0.00 0.00 0.00 15 1012.8
20260507162323 84 234 2.0 4.0 0.00 0.00 0.00 15 1012.8
20260507161820 84 240 2.0 3.0 0.00 0.00 0.00 17 1012.9
20260507161317 83 239 0.0 2.0 0.00 0.00 0.00 18 1012.9
20260507160814 83 249 1.0 1.0 0.00 0.00 0.00 19 1013.1
20260507160309 82 238 0.0 2.0 0.00 0.00 0.00 22 1013.1
20260507155806 81 254 2.0 2.0 0.00 0.00 0.00 21 1013.0
20260507155306 80 240 1.0 1.0 0.00 0.00 0.00 22 1013.1
20260507154758 80 243 0.0 2.0 0.00 0.00 0.00 23 1013.3
20260507154256 79 242 0.0 3.0 0.00 0.00 0.00 23 1013.1
20260507153752 77 239 1.0 1.0 0.00 0.00 0.00 24 1013.1
20260507153249 77 243 0.0 1.0 0.00 0.00 0.00 25 1013.0
20260507152746 77 246 1.0 2.0 0.00 0.00 0.00 26 1013.2
20260507152242 78 249 1.0 2.0 0.00 0.00 0.00 25 1013.0
20260507151738 77 240 0.0 1.0 0.00 0.00 0.00 25 1013.3
20260507151234 76 242 0.0 0.0 0.00 0.00 0.00 26 1013.1
20260507150732 75 243 0.0 0.0 0.00 0.00 0.00 29 1013.2
20260507150228 74 243 1.0 2.0 0.00 0.00 0.00 29 1013.3
20260507145724 74 245 0.0 1.0 0.00 0.00 0.00 29 1013.2
20260507145221 73 242 0.0 0.0 0.00 0.00 0.00 28 1013.2
20260507144718 73 249 0.0 1.0 0.00 0.00 0.00 29 1013.1
20260507144216 72 248 1.0 2.0 0.00 0.00 0.00 28 1013.0
20260507143712 72 242 0.0 1.0 0.00 0.00 0.00 29 1013.1
20260507143209 71 249 0.0 1.0 0.00 0.00 0.00 30 1012.9
20260507142704 71 244 0.0 1.0 0.00 0.00 0.00 32 1013.2
20260507142202 70 242 1.0 1.0 0.00 0.00 0.00 31 1013.1
20260507141658 70 255 1.0 2.0 0.00 0.00 0.00 30 1013.1
20260507141155 70 252 1.0 1.0 0.00 0.00 0.00 30 1013.0
20260507140651 70 246 0.0 0.0 0.00 0.00 0.00 31 1012.9
20260507140149 70 241 0.0 0.0 0.00 0.00 0.00 32 1012.9
20260507135646 70 244 0.0 0.0 0.00 0.00 0.00 32 1012.8
20260507135143 70 243 0.0 0.0 0.00 0.00 0.00 31 1012.9
20260507134639 69 242 0.0 0.0 0.00 0.00 0.00 33 1012.8
20260507134136 67 241 0.0 0.0 0.00 0.00 0.00 33 1012.9
20260507133632 66 244 0.0 0.0 0.00 0.00 0.00 36 1012.7
20260507133129 64 244 0.0 0.0 0.00 0.00 0.00 36 1012.5
20260507132625 64 245 0.0 0.0 0.00 0.00 0.00 37 1012.5
20260507132121 64 245 0.0 1.0 0.00 0.00 0.00 35 1012.6
20260507131618 64 244 0.0 0.0 0.00 0.00 0.00 37 1012.8
20260507131116 64 245 0.0 1.0 0.00 0.00 0.00 36 1012.4
20260507130613 64 248 1.0 1.0 0.00 0.00 0.00 35 1012.6
20260507130111 64 249 1.0 1.0 0.00 0.00 0.00 35 1012.5
20260507125610 64 245 0.0 1.0 0.00 0.00 0.00 36 1012.7
20260507125107 64 249 1.0 1.0 0.00 0.00 0.00 34 1012.3
20260507124603 64 244 0.0 0.0 0.00 0.00 0.00 35 1012.5
20260507124101 64 243 0.0 0.0 0.00 0.00 0.00 34 1012.6
20260507123559 64 244 0.0 0.0 0.00 0.00 0.00 33 1012.4
20260507123056 64 245 0.0 0.0 0.00 0.00 0.00 33 1012.4
20260507122551 64 249 0.0 0.0 0.00 0.00 0.00 33 1012.4
20260507122047 63 244 0.0 0.0 0.00 0.00 0.00 33 1012.5
20260507121543 64 244 0.0 0.0 0.00 0.00 0.00 33 1012.3
20260507121039 64 244 0.0 0.0 0.00 0.00 0.00 33 1012.3
20260507120535 63 244 0.0 1.0 0.00 0.00 0.00 35 1012.3
20260507120032 64 243 0.0 0.0 0.00 0.00 0.00 34 1012.4
20260507115528 64 244 0.0 0.0 0.00 0.00 0.00 34 1012.3
20260507115024 64 245 0.0 0.0 0.00 0.00 0.00 34 1012.4
20260507114520 64 243 0.0 0.0 0.00 0.00 0.00 34 1012.5
20260507114018 64 249 1.0 2.0 0.00 0.00 0.00 34 1012.4
20260507113515 64 244 0.0 0.0 0.00 0.00 0.00 38 1012.5
20260507113012 65 248 1.0 1.0 0.00 0.00 0.00 33 1012.5
20260507112510 65 248 1.0 2.0 0.00 0.00 0.00 33 1012.3
20260507112006 66 248 1.0 2.0 0.00 0.00 0.00 32 1012.3
20260507111504 66 243 0.0 1.0 0.00 0.00 0.00 32 1012.4
20260507110959 65 246 1.0 1.0 0.00 0.00 0.00 31 1012.4
20260507110456 66 244 0.0 0.0 0.00 0.00 0.00 31 1012.5
20260507105952 66 242 0.0 0.0 0.00 0.00 0.00 32 1012.5
20260507105449 65 242 0.0 0.0 0.00 0.00 0.00 32 1012.5
20260507104946 65 242 0.0 0.0 0.00 0.00 0.00 32 1012.7
20260507104443 66 242 0.0 0.0 0.00 0.00 0.00 35 1012.5
20260507103939 67 242 0.0 0.0 0.00 0.00 0.00 33 1012.6
20260507103436 67 241 0.0 0.0 0.00 0.00 0.00 30 1012.8
20260507102932 68 243 0.0 0.0 0.00 0.00 0.00 33 1012.7
20260507102429 68 243 0.0 0.0 0.00 0.00 0.00 30 1012.8
20260507101925 68 244 0.0 1.0 0.00 0.00 0.00 28 1012.8
20260507101420 67 242 0.0 1.0 0.00 0.00 0.00 29 1012.8
20260507100917 67 243 1.0 1.0 0.00 0.00 0.00 29 1012.9
20260507100415 67 243 0.0 0.0 0.00 0.00 0.00 31 1012.9
20260507095913 67 234 0.0 1.0 0.00 0.00 0.00 30 1013.1
20260507095410 66 243 1.0 1.0 0.00 0.00 0.00 30 1012.9
20260507094907 67 241 0.0 1.0 0.00 0.00 0.00 30 1013.0
20260507094403 67 242 0.0 0.0 0.00 0.00 0.00 30 1013.1
20260507093900 67 241 0.0 0.0 0.00 0.00 0.00 30 1013.1
20260507093358 67 242 0.0 0.0 0.00 0.00 0.00 30 1012.9
20260507092856 67 242 0.0 0.0 0.00 0.00 0.00 31 1013.0
20260507092352 66 243 0.0 1.0 0.00 0.00 0.00 32 1013.1
20260507091849 66 241 0.0 1.0 0.00 0.00 0.00 32 1013.0
20260507091345 66 239 0.0 0.0 0.00 0.00 0.00 35 1012.9
20260507090841 66 241 0.0 0.0 0.00 0.00 0.00 34 1012.7
20260507090337 67 239 0.0 1.0 0.00 0.00 0.00 34 1012.7
20260507085834 67 241 0.0 0.0 0.00 0.00 0.00 32 1012.8
20260507085331 67 241 0.0 0.0 0.00 0.00 0.00 31 1012.7
20260507084829 67 239 0.0 0.0 0.00 0.00 0.00 31 1013.1
20260507084325 68 241 0.0 0.0 0.00 0.00 0.00 31 1012.9
20260507083822 67 241 0.0 0.0 0.00 0.00 0.00 31 1013.1
20260507083319 68 234 1.0 1.0 0.00 0.00 0.00 32 1013.0
20260507082815 68 243 0.0 1.0 0.00 0.00 0.00 32 1013.1
20260507082311 68 242 0.0 1.0 0.00 0.00 0.00 33 1012.9
20260507081808 68 241 0.0 0.0 0.00 0.00 0.00 31 1013.1
20260507081304 68 235 1.0 1.0 0.00 0.00 0.00 30 1013.1
20260507080801 68 241 0.0 0.0 0.00 0.00 0.00 29 1013.1
20260507080257 69 242 0.0 0.0 0.00 0.00 0.00 29 1013.2
20260507075752 69 243 0.0 0.0 0.00 0.00 0.00 32 1013.0
20260507075248 68 241 0.0 0.0 0.00 0.00 0.00 30 1013.3
20260507074745 69 241 0.0 0.0 0.00 0.00 0.00 30 1013.3
20260507074243 69 244 0.0 0.0 0.00 0.00 0.00 30 1012.9
20260507073739 69 240 0.0 0.0 0.00 0.00 0.00 30 1013.1
20260507073236 70 243 0.0 0.0 0.00 0.00 0.00 29 1013.2
20260507072734 70 243 0.0 0.0 0.00 0.00 0.00 30 1013.1
20260507072231 70 244 0.0 0.0 0.00 0.00 0.00 29 1013.2
20260507071729 70 243 0.0 0.0 0.00 0.00 0.00 30 1013.2
20260507071225 70 244 0.0 0.0 0.00 0.00 0.00 29 1013.2
20260507070722 70 242 0.0 0.0 0.00 0.00 0.00 29 1013.2
20260507070219 70 241 0.0 1.0 0.00 0.00 0.00 29 1013.1
20260507065715 70 242 0.0 0.0 0.00 0.00 0.00 30 1013.2
20260507065212 70 242 0.0 0.0 0.00 0.00 0.00 29 1013.2
20260507064709 70 241 0.0 0.0 0.00 0.00 0.00 29 1013.3
20260507064209 70 241 0.0 0.0 0.00 0.00 0.00 31 1013.2
20260507063705 70 241 0.0 0.0 0.00 0.00 0.00 30 1013.3
20260507063202 70 241 0.0 0.0 0.00 0.00 0.00 29 1013.1
20260507062659 70 241 0.0 0.0 0.00 0.00 0.00 31 1013.2
20260507062156 70 242 0.0 0.0 0.00 0.00 0.00 31 1013.2
20260507061654 70 242 0.0 0.0 0.00 0.00 0.00 34 1013.1
20260507061152 70 242 0.0 0.0 0.00 0.00 0.00 35 1013.2
20260507060650 70 242 0.0 0.0 0.00 0.00 0.00 36 1013.2
20260507060146 71 242 0.0 0.0 0.00 0.00 0.00 33 1013.2
20260507055641 71 242 0.0 0.0 0.00 0.00 0.00 32 1013.2
20260507055137 71 242 0.0 0.0 0.00 0.00 0.00 31 1013.3
20260507054633 72 242 0.0 0.0 0.00 0.00 0.00 30 1013.1
20260507054130 72 242 0.0 0.0 0.00 0.00 0.00 30 1013.0
20260507053628 72 242 0.0 0.0 0.00 0.00 0.00 30 1013.0
20260507053126 72 241 0.0 0.0 0.00 0.00 0.00 29 1013.1
20260507052624 73 242 0.0 0.0 0.00 0.00 0.00 29 1013.1
20260507052120 73 242 0.0 0.0 0.00 0.00 0.00 26 1013.2
20260507051618 73 242 0.0 0.0 0.00 0.00 0.00 27 1013.0
20260507051109 74 243 0.0 0.0 0.00 0.00 0.00 27 1013.2
20260507050605 74 242 0.0 0.0 0.00 0.00 0.00 31 1012.9
20260507045559 73 246 0.0 0.0 0.00 0.00 0.00 25 1012.8
20260507045056 73 242 0.0 0.0 0.00 0.00 0.00 28 1013.0
20260507044553 73 243 0.0 0.0 0.00 0.00 0.00 30 1013.0
20260507044050 73 243 0.0 0.0 0.00 0.00 0.00 33 1012.8
20260507043545 74 242 0.0 0.0 0.00 0.00 0.00 33 1013.1
20260507043043 74 242 0.0 0.0 0.00 0.00 0.00 30 1012.9
20260507042538 75 242 0.0 0.0 0.00 0.00 0.00 30 1012.8
20260507042034 75 243 0.0 0.0 0.00 0.00 0.00 28 1012.8
20260507041531 75 243 0.0 0.0 0.00 0.00 0.00 26 1012.8
20260507041028 76 244 0.0 0.0 0.00 0.00 0.00 27 1012.6
20260507040524 77 244 0.0 0.0 0.00 0.00 0.00 29 1012.6
20260507040020 77 244 0.0 0.0 0.00 0.00 0.00 27 1012.6
20260507035517 77 244 0.0 0.0 0.00 0.00 0.00 27 1012.6
20260507035013 78 244 0.0 0.0 0.00 0.00 0.00 27 1012.5
20260507034511 78 244 0.0 0.0 0.00 0.00 0.00 24 1012.5
20260507034009 78 244 0.0 0.0 0.00 0.00 0.00 25 1012.2
20260507033506 78 244 0.0 0.0 0.00 0.00 0.00 25 1012.1
20260507033003 79 247 0.0 0.0 0.00 0.00 0.00 23 1012.0
20260507032500 79 245 0.0 1.0 0.00 0.00 0.00 23 1012.0
20260507031956 79 245 0.0 1.0 0.00 0.00 0.00 23 1012.1
20260507031452 79 242 0.0 0.0 0.00 0.00 0.00 23 1012.0
20260507030950 80 245 0.0 0.0 0.00 0.00 0.00 23 1011.9
20260507030447 80 245 0.0 1.0 0.00 0.00 0.00 23 1011.7
20260507025944 80 245 0.0 0.0 0.00 0.00 0.00 22 1011.7
20260507025441 80 244 0.0 0.0 0.00 0.00 0.00 25 1011.7
20260507024939 81 245 0.0 1.0 0.00 0.00 0.00 22 1011.7
20260507024436 81 250 0.0 2.0 0.00 0.00 0.00 22 1011.6
20260507023931 81 244 0.0 0.0 0.00 0.00 0.00 22 1011.6
20260507023428 81 247 1.0 1.0 0.00 0.00 0.00 21 1011.6
20260507022926 81 252 0.0 1.0 0.00 0.00 0.00 21 1011.5
20260507022423 82 245 2.0 2.0 0.00 0.00 0.00 21 1011.5
20260507021918 82 246 1.0 2.0 0.00 0.00 0.00 21 1011.7
20260507021414 82 245 1.0 2.0 0.00 0.00 0.00 20 1011.4
20260507020912 82 251 2.0 3.0 0.00 0.00 0.00 20 1011.3
20260507020408 83 248 1.0 3.0 0.00 0.00 0.00 20 1011.4
20260507015906 83 244 1.0 2.0 0.00 0.00 0.00 21 1011.3
20260507015404 83 245 2.0 2.0 0.00 0.00 0.00 20 1011.3
20260507014900 84 242 2.0 3.0 0.00 0.00 0.00 19 1011.3
20260507014356 84 242 2.0 2.0 0.00 0.00 0.00 19 1011.3
20260507013853 84 245 0.0 2.0 0.00 0.00 0.00 20 1011.3
20260507013351 85 249 2.0 3.0 0.00 0.00 0.00 19 1011.2
20260507012848 85 243 0.0 3.0 0.00 0.00 0.00 19 1011.3
20260507012343 85 257 1.0 2.0 0.00 0.00 0.00 19 1011.3
20260507011840 85 244 0.0 2.0 0.00 0.00 0.00 19 1011.2
20260507011337 85 282 2.0 3.0 0.00 0.00 0.00 19 1011.3
20260507010831 86 244 3.0 3.0 0.00 0.00 0.00 18 1011.3
20260507010327 85 248 2.0 4.0 0.00 0.00 0.00 18 1011.3
20260507005825 86 271 3.0 6.0 0.00 0.00 0.00 18 1011.5
20260507005322 86 245 0.0 1.0 0.00 0.00 0.00 18 1011.4
20260507004819 86 239 3.0 3.0 0.00 0.00 0.00 18 1011.1
20260507004316 85 285 3.0 4.0 0.00 0.00 0.00 18 1011.3
20260507003813 86 286 4.0 6.0 0.00 0.00 0.00 18 1011.2
20260507003308 86 256 2.0 3.0 0.00 0.00 0.00 18 1011.2
20260507002803 86 266 2.0 2.0 0.00 0.00 0.00 18 1011.3
20260507002259 86 274 0.0 1.0 0.00 0.00 0.00 19 1011.4
20260507001757 86 236 2.0 2.0 0.00 0.00 0.00 17 1011.2
20260507001254 87 252 3.0 4.0 0.00 0.00 0.00 17 1011.4
20260507000750 87 245 2.0 2.0 0.00 0.00 0.00 17 1011.2
20260507000246 87 243 0.0 3.0 0.00 0.00 0.00 19 1011.2
20260506235743 87 223 0.0 4.0 0.00 0.00 0.00 18 1011.2
20260506235238 87 238 3.0 7.0 0.00 0.00 0.00 18 1011.3
20260506234735 86 253 2.0 4.0 0.00 0.00 0.00 18 1011.4
20260506234232 87 273 2.0 3.0 0.00 0.00 0.00 17 1011.6
20260506233730 87 261 1.0 3.0 0.00 0.00 0.00 17 1011.4
20260506233226 87 241 1.0 3.0 0.00 0.00 0.00 17 1011.5
20260506232723 87 247 0.0 2.0 0.00 0.00 0.00 17 1011.5
20260506232218 86 249 1.0 3.0 0.00 0.00 0.00 18 1011.4
20260506231715 86 0 2.0 3.0 0.00 0.00 0.00 18 1011.8
20260506231214 86 266 2.0 6.0 0.00 0.00 0.00 18 1011.8
20260506230710 87 248 0.0 4.0 0.00 0.00 0.00 18 1011.7
20260506230207 87 285 2.0 6.0 0.00 0.00 0.00 19 1011.7
20260506225703 87 270 1.0 4.0 0.00 0.00 0.00 18 1011.9
20260506225200 86 259 2.0 2.0 0.00 0.00 0.00 18 1011.9
20260506224657 85 242 2.0 2.0 0.00 0.00 0.00 18 1011.9
20260506224154 84 245 0.0 3.0 0.00 0.00 0.00 19 1011.9
20260506223650 86 248 4.0 4.0 0.00 0.00 0.00 17 1012.1
20260506223146 85 262 1.0 6.0 0.00 0.00 0.00 18 1012.2
20260506222643 86 281 3.0 6.0 0.00 0.00 0.00 17 1012.4
20260506222139 87 246 1.0 1.0 0.00 0.00 0.00 18 1012.3
20260506221637 86 247 0.0 1.0 0.00 0.00 0.00 18 1012.2
20260506221135 84 246 0.0 2.0 0.00 0.00 0.00 19 1012.4
20260506220631 86 269 2.0 6.0 0.00 0.00 0.00 18 1012.4
20260506220126 85 250 2.0 2.0 0.00 0.00 0.00 18 1012.5
20260506215623 84 254 2.0 6.0 0.00 0.00 0.00 18 1012.5
20260506215119 84 251 1.0 4.0 0.00 0.00 0.00 18 1012.6
20260506214616 84 255 0.0 3.0 0.00 0.00 0.00 19 1012.7
20260506214113 83 250 2.0 3.0 0.00 0.00 0.00 18 1012.7
20260506213611 84 239 0.0 3.0 0.00 0.00 0.00 18 1013.0
20260506213108 85 273 1.0 6.0 0.00 0.00 0.00 18 1013.1
20260506212605 84 237 2.0 8.0 0.00 0.00 0.00 18 1013.2
20260506212100 85 108 3.0 4.0 0.00 0.00 0.00 17 1013.1
20260506211556 86 282 4.0 4.0 0.00 0.00 0.00 18 1013.2
20260506211053 85 246 0.0 1.0 0.00 0.00 0.00 19 1013.2
20260506210550 83 236 0.0 2.0 0.00 0.00 0.00 18 1013.4
20260506210046 84 310 4.0 7.0 0.00 0.00 0.00 19 1013.6
20260506205543 84 250 2.0 6.0 0.00 0.00 0.00 19 1013.6
20260506205038 84 223 2.0 3.0 0.00 0.00 0.00 18 1013.7
20260506204537 84 256 1.0 4.0 0.00 0.00 0.00 20 1013.7
20260506204033 83 247 2.0 2.0 0.00 0.00 0.00 20 1013.6
20260506203532 84 221 2.0 7.0 0.00 0.00 0.00 19 1013.7
20260506203028 83 216 3.0 3.0 0.00 0.00 0.00 19 1013.7
20260506202525 83 236 0.0 2.0 0.00 0.00 0.00 18 1014.0
20260506202022 84 232 2.0 7.0 0.00 0.00 0.00 19 1014.0
20260506201520 83 251 2.0 3.0 0.00 0.00 0.00 18 1014.2
20260506201016 82 92 5.0 7.0 0.00 0.00 0.00 19 1014.0
20260506200512 83 255 2.0 3.0 0.00 0.00 0.00 21 1014.0
20260506200009 81 236 0.0 6.0 0.00 0.00 0.00 21 1014.0
20260506195506 82 279 2.0 6.0 0.00 0.00 0.00 19 1014.2
20260506195002 82 330 4.0 6.0 0.00 0.00 0.00 19 1014.3
20260506194459 81 266 2.0 6.0 0.00 0.00 0.00 19 1014.3
20260506193951 81 266 4.0 8.0 0.00 0.00 0.00 20 1014.2
20260506193448 83 261 5.0 7.0 0.00 0.00 0.00 19 1014.2